Find Starlink 34937

NORAD ID: 66192 Int'l Des: 2025-243 Owner: SPXS Country: US Constellation: starlink operational
LEOCIRCULAR

当前视图

正在加载3D地球...

关于 Starlink 34937

正在加载描述...

即将过境

Passes for default location (London). Set your location on the main map for personalized predictions.

高度历史

Loading altitude history...

两行轨道根数

1 66192U 25243R 26146.50859434 .00023427 00000-0 80078-3 0 9991
2 66192 53.1567 244.1158 0000761 141.4740 218.6315 15.30192684 32564
Epoch: May 26, 2026 • Age: 10 hours

当前状态

高度 478.8 km
速度 7.63 km/s
星下点 -14.58°S, 148.31°W
发射日期 Oct 26, 2025
运行时间 0.5 years
类型 internet

技术详情

分类 Payload
质量 575.00 kg
干质量 530.00 kg
总质量 575.00 kg
长度 0.30 m
直径 4.10 m
跨度 29.00 m
形状 Box + pan
制造商 SPXS
平台类型 Starlink V2MO
阶段状态 In Orbit
所有者/国家 SPXS/US

Most Searched